Dewpoint
55 53 57 57 56 58 59 55 55 54 57 57 57 60 65 64 60 54 60 51 53 58 53 52 54 55 56 55 52 53 55 55 57 60 61 62 63 64 65 65 65 65 64 64 64 63 62 62 62 62 62 62 62 62 62 61 61 60 60 59 59 59 58 59 58 58 58 57 57 56 56 56 56 56 55 56 56 56 56 56 56 56 56 57 58
56 56 51 57 57 57 59 60 58 57 57 57 57 58 56 55 55 52 47 49 50 57 58 51 51 53 52 51 50 50 53 54 57 59 61 62 62 62 64 64 63 63 63 64 64 64 64 63 63 63 62 62 62 63 62 61 60 60 59 59 59 59 59 59 58 58 58 58 57 56 55 55 56 55 55 54 55 55 54 54 54 54 55 55 56
57 59 55 56 56 57 56 57 58 58 56 56 58 57 57 55 51 53 51 51 53 56 53 54 49 49 57 51 47 47 48 55 57 58 59 60 61 61 61 63 62 61 61 61 61 62 62 62 62 62 61 62 61 61 61 61 60 59 58 57 57 57 57 57 57 57 57 57 57 57 56 56 56 56 56 56 55 55 54 53 53 53 54 55 55
59 55 56 54 55 56 57 58 58 59 59 59 59 57 52 49 56 56 55 57 56 54 53 52 51 50 46 49 47 45 44 51 54 57 58 59 59 59 59 59 61 60 60 59 58 58 59 59 59 59 59 58 58 58 59 59 58 58 58 57 56 56 56 55 55 54 54 53 53 53 53 54 54 54 54 55 55 55 55 54 54 54 54 55 55
60 56 56 51 55 56 56 57 56 60 60 58 57 58 62 56 57 57 57 55 53 53 51 55 54 54 52 53 49 47 45 46 49 51 57 57 58 58 58 58 57 59 58 57 56 55 54 54 55 55 55 55 55 55 55 55 55 55 56 56 56 55 54 53 52 51 51 50 50 50 50 50 50 49 49 50 50 51 52 53 54 54 55 55 56
55 56 55 56 55 55 56 56 57 57 60 57 59 57 57 56 56 59 57 55 54 57 58 54 53 52 52 52 48 54 50 46 49 48 48 48 54 56 56 55 54 53 54 54 52 51 50 50 50 50 52 52 52 52 52 52 53 52 52 53 53 53 52 51 50 50 50 50 50 49 50 49 48 48 49 49 49 49 49 49 51 52 53 54 55
55 57 56 55 53 54 55 55 56 56 55 56 62 57 57 55 57 52 53 52 47 51 52 55 54 52 55 55 51 47 50 47 47 46 47 49 50 50 52 52 54 52 51 50 51 50 49 48 47 47 48 49 48 48 49 50 51 51 51 51 52 52 51 50 49 49 49 50 50 50 49 49 49 49 49 49 49 50 50 50 50 50 50 51 51
56 56 57 54 53 54 57 58 58 57 58 58 58 56 57 57 57 59 60 47 49 50 53 53 52 52 53 53 52 54 51 49 46 43 45 47 49 49 48 47 50 51 54 50 51 50 49 48 46 46 45 46 46 46 48 50 50 51 51 52 52 52 51 49 49 49 49 50 50 49 49 50 50 50 50 50 50 49 49 49 49 50 50 51 50
55 56 57 54 54 53 56 58 58 59 58 59 58 58 58 57 58 57 57 53 47 44 50 53 54 53 51 50 49 52 49 48 45 45 43 45 47 45 47 48 52 53 50 50 50 51 51 48 46 45 45 44 44 43 44 47 49 50 51 52 52 51 51 50 49 49 49 50 50 50 50 50 51 51 50 50 49 49 49 49 49 50 50 50 50
54 54 57 53 52 54 55 55 56 58 60 57 58 57 58 59 57 56 56 50 48 48 49 50 48 48 49 48 53 54 52 51 51 52 44 39 46 41 45 48 43 41 46 44 42 47 50 49 48 46 45 44 44 43 42 42 45 49 49 50 52 51 51 50 50 49 49 49 50 50 50 50 50 51 51 50 50 50 50 49 49 49 50 50 50
54 55 54 54 53 55 57 56 56 57 58 57 57 58 59 58 57 55 53 49 51 50 48 50 41 41 42 45 51 49 53 52 54 51 45 42 45 41 36 43 38 39 44 43 45 45 45 49 48 44 45 45 43 44 43 43 43 47 49 48 50 51 51 51 50 50 50 50 50 50 50 50 50 50 49 49 49 49 50 50 49 49 49 50 50
52 54 56 55 55 56 55 54 55 55 57 56 58 58 58 57 57 54 55 50 53 49 48 50 47 47 51 48 48 46 43 47 43 37 48 40 41 44 37 37 41 42 38 40 44 42 46 45 47 40 46 46 43 44 43 43 43 44 48 47 47 49 50 50 49 49 49 49 50 50 50 49 49 49 49 48 48 48 48 48 49 48 49 50 50
49 50 55 53 55 56 56 53 53 55 57 56 58 58 57 57 56 57 55 54 50 50 46 50 49 51 57 50 55 50 49 45 35 39 32 40 45 45 44 44 38 42 40 48 39 42 46 41 40 42 39 44 44 43 44 44 42 42 45 46 45 46 49 50 50 50 50 50 49 49 49 49 48 48 47 47 47 46 47 46 48 49 49 50 50
52 52 53 51 53 53 54 56 55 55 56 56 57 57 58 58 60 58 50 52 50 48 51 51 51 49 48 50 48 54 51 49 36 28 30 31 36 39 42 29 32 38 47 45 40 35 33 42 40 40 41 40 41 42 46 43 39 39 41 45 45 44 47 50 50 50 50 49 49 49 48 47 47 45 45 45 46 47 49 49 49 49 49 49 49
45 51 47 50 54 55 54 56 55 56 56 55 55 55 57 57 58 60 51 48 50 50 53 54 50 52 51 46 47 45 52 50 45 35 26 27 31 26 28 25 24 31 40 40 39 39 38 36 39 41 42 41 40 42 43 45 40 38 39 44 43 42 46 48 49 50 49 48 49 48 48 46 46 46 46 46 46 46 46 47 48 48 48 47 48
38 39 44 51 54 54 54 56 56 56 54 54 54 53 56 56 55 53 51 52 45 49 47 53 51 50 51 51 51 47 44 46 47 36 27 27 21 13 17 18 22 27 37 31 35 39 45 38 41 43 44 46 43 44 45 43 38 37 37 43 43 42 43 47 49 49 49 48 48 48 49 48 48 46 45 46 46 46 46 47 47 47 47 48 47
49 46 45 50 54 56 55 54 54 54 55 53 52 53 49 51 52 54 52 53 47 51 48 47 51 52 49 50 49 52 42 42 40 44 32 19 16 16 33 22 20 26 29 27 35 34 37 36 40 42 44 45 42 43 42 41 42 38 42 40 42 41 42 46 48 48 48 48 48 48 48 48 49 48 47 46 46 47 46 46 46 46 46 47 47
46 47 45 51 55 55 54 48 53 55 53 51 52 52 52 49 50 52 52 52 55 48 49 48 51 55 52 56 49 43 43 39 42 45 46 42 31 18 26 20 26 26 30 24 25 33 39 32 45 42 42 42 41 38 38 43 43 42 47 43 40 39 39 43 46 48 48 48 47 48 48 48 48 48 48 48 48 47 47 46 46 46 46 46 47
56 49 52 52 54 55 55 52 50 52 54 53 51 48 45 44 49 50 50 53 54 52 51 49 56 47 45 44 44 49 47 45 39 38 43 44 46 35 17 18 21 21 16 17 24 38 35 37 32 27 37 39 38 41 42 38 36 37 39 40 40 40 40 43 45 46 47 48 48 48 48 48 48 48 48 48 48 47 47 46 46 46 46 46 46
56 52 51 50 54 51 54 54 51 47 49 50 50 50 48 49 52 53 52 53 51 52 50 50 50 45 48 48 47 39 34 40 37 34 38 41 42 35 27 25 27 32 31 23 30 33 38 41 28 28 37 33 35 35 35 35 39 38 43 41 41 40 40 42 44 45 47 48 48 48 48 48 48 49 49 48 48 48 47 46 46 46 46 46 46
59 54 53 52 53 49 50 50 51 49 45 46 49 44 49 51 51 52 52 51 52 52 50 49 46 45 49 46 43 42 38 35 34 35 40 35 37 36 33 27 37 39 40 35 23 30 34 41 37 32 41 39 33 32 34 37 41 40 42 40 38 38 40 42 43 44 46 46 47 47 47 47 48 48 48 48 48 48 47 46 46 46 45 45 45
59 58 56 52 53 53 42 39 46 43 44 46 48 49 50 50 51 52 51 51 51 50 50 50 49 49 46 47 46 45 42 39 38 35 37 34 35 30 29 28 35 42 44 31 29 24 25 34 33 26 31 41 36 34 33 36 35 43 40 36 36 37 38 40 42 44 45 45 45 45 46 46 46 47 47 47 48 47 47 46 45 45 45 45 45
60 64 55 51 55 54 50 44 50 58 51 46 51 47 49 50 50 49 49 51 50 50 50 49 49 48 43 46 43 42 43 43 42 42 42 41 38 33 31 24 22 32 34 30 30 23 24 26 25 28 30 35 34 36 34 35 32 31 33 34 35 36 37 39 41 43 44 44 43 44 44 45 45 46 47 47 47 47 46 45 44 44 44 45 47
61 60 60 51 54 53 54 52 51 52 49 50 50 46 50 50 51 51 50 51 51 51 50 49 49 48 47 49 47 46 44 41 42 44 44 43 43 37 29 28 29 25 26 36 33 24 23 23 18 27 33 29 26 28 40 36 34 32 33 32 34 35 37 39 40 40 41 41 42 42 43 44 45 46 46 46 46 46 46 45 45 44 46 46 46
59 58 58 56 56 60 52 53 54 56 52 49 50 48 52 52 52 50 50 49 49 50 49 49 50 48 47 47 46 43 42 43 45 44 45 46 44 38 32 32 35 30 27 29 27 21 24 25 20 24 17 24 23 31 27 35 36 37 32 38 32 35 36 36 37 38 39 41 41 41 41 42 44 45 45 45 46 47 47 46 46 47 46 45 44
59 59 54 51 53 53 55 54 53 52 52 52 51 48 51 46 49 50 47 49 48 49 49 48 48 49 49 49 46 45 44 44 43 47 42 42 41 38 38 40 34 32 29 29 23 31 29 27 20 23 25 24 28 24 32 32 33 40 33 31 36 36 33 33 35 36 38 39 40 39 40 41 42 42 43 43 44 46 46 46 46 46 45 45 45
56 59 56 55 54 53 50 54 52 53 52 53 50 54 54 52 49 51 51 52 52 50 49 49 47 46 47 47 47 45 46 43 42 41 38 42 41 40 40 36 36 37 38 26 24 29 20 26 19 20 24 32 31 32 27 26 27 38 39 36 35 38 35 31 34 35 36 36 37 39 40 41 41 41 42 42 42 43 44 44 45 46 46 47 47
57 56 57 55 53 51 50 48 51 51 52 52 51 50 51 53 51 51 50 46 50 49 50 48 48 47 48 50 50 43 50 45 41 41 41 42 45 47 41 37 36 34 35 35 33 28 24 23 21 24 21 22 25 29 35 29 30 44 41 36 35 38 40 38 35 35 36 37 38 39 40 40 40 41 40 40 41 42 44 45 45 45 46 47 47
60 58 58 58 55 54 51 49 52 52 52 53 49 50 51 51 51 51 49 49 49 46 48 49 48 50 50 47 50 48 48 44 45 47 45 44 43 45 39 41 39 36 34 33 33 34 30 23 23 25 23 21 24 28 24 21 28 32 27 30 31 34 41 44 44 40 40 39 38 38 39 39 39 39 39 39 40 42 44 45 45 45 45 45 45
60 57 58 57 57 54 55 52 52 52 51 50 47 47 50 52 52 50 50 50 50 50 50 48 48 49 48 48 47 47 47 50 46 46 46 46 44 44 43 42 46 37 36 34 34 35 35 33 27 24 24 23 21 22 20 21 39 33 25 24 26 29 41 43 42 42 43 43 44 43 41 39 38 38 39 40 41 42 43 43 43 43 43 43 42
60 60 58 55 57 56 56 52 52 52 51 50 52 48 48 52 51 50 50 50 50 49 49 49 48 49 48 48 48 48 46 45 46 45 45 44 44 40 41 41 46 44 38 37 34 37 36 34 35 28 24 24 22 23 21 19 31 32 26 29 23 37 45 40 43 44 45 44 44 45 45 43 38 39 39 40 40 40 41 42 42 42 42 41 40
60 59 57 55 56 54 54 52 50 50 48 49 49 48 50 51 50 50 49 48 45 47 46 47 45 46 47 46 46 47 47 47 46 46 44 43 42 41 40 42 41 41 41 38 36 34 37 36 33 30 28 28 26 23 22 22 26 42 28 26 24 42 29 25 37 40 41 43 44 44 44 44 40 39 40 40 39 39 39 40 41 41 41 41 41
59 59 57 56 55 55 52 53 50 50 49 50 49 50 49 50 50 49 47 43 44 47 48 45 42 44 45 43 43 44 46 45 46 45 41 38 38 42 41 41 41 39 38 38 34 31 35 38 37 32 31 30 26 26 25 26 26 24 34 27 25 27 24 28 28 37 39 40 41 43 43 43 44 42 41 40 41 42 42 42 42 42 43 43 42
58 56 56 56 56 55 53 51 52 49 49 48 48 50 48 48 48 45 47 42 42 44 47 44 44 42 47 44 41 42 41 38 40 35 38 38 33 38 37 37 38 39 37 36 34 34 30 35 38 33 30 29 27 28 28 30 29 29 23 21 18 20 21 27 26 26 37 39 40 41 41 41 41 42 44 43 43 42 41 41 41 42 43 43 43
58 57 56 56 55 54 53 54 51 50 49 48 49 49 48 47 46 46 47 45 44 45 45 44 40 41 43 45 43 45 44 42 43 42 41 39 37 33 33 34 37 40 34 33 36 35 31 33 36 31 32 33 34 29 26 26 25 22 21 21 21 21 22 24 28 29 36 39 40 40 40 40 41 42 42 43 42 42 41 42 42 42 42 42 42
56 58 57 55 55 55 54 53 52 51 50 51 49 47 45 45 46 45 45 46 44 44 44 42 39 40 41 42 42 44 46 44 43 43 43 42 45 43 38 38 41 38 37 39 37 36 36 34 36 32 32 33 34 29 27 25 24 24 24 25 25 23 22 25 26 28 34 39 41 41 41 41 42 42 42 42 42 42 42 42 42 42 42 42 42
55 56 57 56 55 55 55 53 52 51 51 50 49 48 49 49 47 46 45 42 44 43 43 42 43 40 42 43 42 42 44 45 45 43 42 43 40 42 40 39 40 42 40 40 39 38 36 35 36 36 36 33 33 34 30 26 26 25 26 28 26 25 24 26 29 30 36 38 38 38 38 40 44 44 43 43 43 42 42 42 42 43 43 43 43
56 56 56 55 53 53 53 53 52 51 51 51 49 48 47 48 48 47 46 45 43 40 41 42 41 40 42 42 43 43 43 44 44 45 44 42 40 42 42 41 39 41 43 41 41 40 38 37 36 35 37 37 35 37 32 32 31 31 30 29 29 28 29 29 29 27 31 26 29 30 38 41 39 40 41 42 43 43 43 43 43 44 44 44 43
56 55 55 56 56 54 54 54 53 53 52 51 51 50 49 48 47 46 47 46 45 44 41 40 40 40 40 39 42 44 43 43 44 44 44 45 44 44 45 44 43 43 43 43 40 39 38 37 36 36 36 38 36 34 32 32 30 31 30 30 31 30 32 31 31 29 27 26 31 37 39 39 41 40 41 42 42 43 43 44 45 45 46 45 44
54 54 54 54 56 55 54 54 54 54 53 52 52 51 50 49 49 47 47 47 44 44 44 41 41 41 41 40 40 40 41 42 44 44 44 44 44 44 45 45 45 45 44 44 43 40 38 38 37 36 37 37 36 37 35 33 33 33 33 32 31 31 31 32 30 28 26 26 25 26 35 37 38 39 41 42 42 43 44 43 43 47 49 46 45
55 53 54 54 55 55 54 55 54 54 54 53 52 52 51 50 49 48 47 45 45 44 43 42 41 40 39 40 39 39 43 47 46 47 46 47 44 44 45 46 45 45 44 44 42 41 40 38 37 37 36 35 35 36 33 34 33 32 33 35 32 31 30 30 29 27 27 24 27 29 30 34 35 36 38 37 38 42 42 44 45 45 44 43 44
55 56 55 55 55 55 55 55 54 55 55 55 56 53 53 51 50 47 48 47 45 45 45 44 43 42 40 39 39 46 47 49 49 49 48 46 47 47 45 42 43 44 44 43 42 41 39 37 36 36 33 32 34 35 34 34 33 35 35 33 30 30 29 29 28 27 28 26 28 28 30 33 35 36 36 36 39 42 41 40 41 43 43 43 42
56 56 57 55 55 55 54 55 56 56 56 55 53 46 46 49 52 51 50 49 48 46 45 45 44 43 43 40 41 46 48 49 47 47 44 44 43 43 44 45 42 41 41 41 40 39 38 36 36 34 32 31 33 35 33 30 34 35 34 33 32 30 29 27 25 27 31 29 28 29 30 32 34 35 35 37 37 39 39 39 43 43 42 41 41
58 58 58 57 56 57 57 55 56 57 57 56 47 45 44 44 49 52 51 50 50 48 46 44 44 43 43 43 43 41 44 44 42 44 43 43 41 41 40 39 39 40 40 38 37 36 37 36 35 33 32 30 31 34 32 33 35 36 34 32 30 29 27 26 27 26 27 30 30 30 31 32 34 35 37 38 38 40 38 41 42 42 41 41 41
58 58 58 58 58 59 59 57 57 57 57 51 45 45 44 43 43 49 51 51 50 49 48 46 44 43 44 45 44 44 37 49 45 41 42 41 42 41 41 41 40 38 35 36 39 38 37 37 35 34 32 31 30 31 35 36 38 35 34 31 30 30 29 28 27 28 29 31 32 31 31 31 33 35 34 37 38 39 39 41 41 41 41 41 41
58 58 59 60 60 60 60 59 58 58 58 52 44 44 43 42 42 43 49 51 52 50 49 47 46 45 45 45 44 44 45 47 46 43 43 43 43 40 40 39 38 40 41 37 37 39 40 37 36 34 34 34 31 32 35 37 37 34 32 30 31 30 30 30 30 31 32 34 32 33 31 28 32 35 33 34 37 37 38 40 40 40 41 41 41
58 59 59 60 60 61 61 61 60 59 58 50 44 43 43 42 41 42 48 50 51 51 50 50 49 48 46 45 45 45 46 46 46 45 44 43 43 45 43 40 40 39 39 40 39 38 39 37 36 36 36 35 33 33 36 39 36 34 32 30 31 32 33 33 32 32 32 33 34 32 26 30 36 34 34 35 36 36 36 39 40 41 41 41 41
58 59 61 61 61 61 62 62 61 59 59 48 44 43 42 41 41 46 47 48 50 50 50 50 50 49 48 47 46 45 44 45 48 44 45 44 43 43 43 43 43 42 42 46 43 42 42 39 37 36 35 35 37 40 39 35 33 33 34 33 34 34 33 31 29 30 32 33 33 29 30 35 37 34 33 35 36 35 36 37 40 41 41 41 41
58 58 59 62 62 62 62 62 61 60 60 50 43 43 42 41 41 46 46 46 47 48 49 49 49 49 48 46 45 45 44 43 43 38 40 46 43 43 43 43 44 43 43 44 43 41 41 40 38 38 37 37 35 34 35 36 35 36 35 33 32 34 32 30 31 31 32 31 29 33 37 34 35 34 34 35 35 35 36 37 37 40 40 40 41
58 58 59 60 62 63 63 62 62 61 60 55 43 42 42 41 45 47 46 46 47 47 47 48 48 48 48 51 48 45 44 43 40 37 38 42 42 41 41 40 39 38 38 40 40 44 41 39 38 38 37 35 35 36 36 36 36 38 34 32 33 35 33 33 32 32 29 27 29 41 34 34 35 35 33 34 35 36 37 37 37 38 39 39 40
58 59 58 59 61 63 63 62 61 60 60 57 45 42 41 41 44 49 47 46 46 47 47 47 48 47 48 49 50 47 45 44 38 37 37 41 40 40 40 39 38 37 38 41 40 43 41 40 39 37 36 37 38 36 37 38 38 41 38 36 37 36 34 34 33 28 25 26 28 39 33 33 33 34 34 33 33 35 38 38 38 37 37 38 39